Location: Brunembert
(50.7122°N, 1.8935°E)
Time: 10:47:02
(UTC+00:00)

Cosmos 1076 Rocket - Pass Details

Date: 22 April 2021
Orbit: 589 x 612 km, 82.5° (Epoch: 05 May)

Event Time Altitude Azimuth Distance (km) Brightness Sun altitude
Rises 19:49:28 0° 350° (N) 2,882 7.7 -8.0°
Reaches altitude 10° 19:51:42 10° 351° (N) 1,969 6.8 -8.3°
Maximum altitude 19:56:04 83° 80° (E) 616 3.5 -8.9°
Drops below altitude 10° 20:00:22 10° 168° (SSE) 1,939 5.7 -9.4°
Enters shadow 20:01:45 - 169° (S) 2,503 6.3 -9.6°
